Lid_Strength_Index
9 8 7 7 6 5 2 2 1 1 1 2 2 1 1 1 1 0 0 0 1 1 1 2 2 2 2 2 2 3 2 1
9 8 7 6 6 6 2 2 2 1 2 2 2 2 2 2 1 1 1 1 1 1 1 2 2 2 2 2 2 3 4 2
8 6 6 5 5 3 2 2 2 1 1 2 3 2 2 2 2 2 1 1 1 1 1 1 2 2 2 2 2 3 3 2
8 5 5 4 3 4 4 5 4 5 5 4 4 3 3 2 3 3 2 1 1 1 1 2 2 2 2 2 3 3 3 3
7 5 5 4 4 4 4 3 3 3 4 5 3 3 4 3 2 1 2 2 2 1 2 2 2 2 2 2 2 3 2 3
7 5 4 4 4 3 4 3 3 3 3 4 4 4 3 4 3 2 2 2 2 1 1 2 2 2 2 2 2 2 2 2
5 5 5 5 5 5 3 2 3 2 2 2 2 2 3 3 3 2 2 1 2 1 1 1 1 1 2 2 2 2 2 2
6 5 5 6 5 4 4 4 4 3 3 3 3 3 2 3 3 2 2 3 2 2 1 1 1 1 1 1 2 2 2 3
6 5 5 5 5 4 3 3 3 3 3 4 4 3 3 2 2 2 2 2 2 2 1 1 1 1 1 1 2 2 2 2
6 5 5 5 5 4 3 4 4 3 3 4 4 3 2 2 2 2 2 1 1 2 1 1 1 1 1 1 2 2 2 2
6 5 4 4 4 3 4 4 4 4 4 4 4 4 3 2 2 2 2 1 2 2 1 1 1 1 1 1 2 2 2 2
5 5 4 4 4 4 5 5 5 5 5 4 5 4 3 2 3 4 3 1 1 1 1 2 1 1 1 2 2 2 2 2
6 5 5 5 6 7 7 7 7 7 6 5 5 5 4 4 5 5 4 3 2 1 1 2 1 1 2 2 2 2 2 2
7 8 8 8 9 9 9 8 8 7 7 7 7 6 6 6 6 6 5 5 3 2 1 2 2 2 2 2 2 2 2 2
8 9 9 9 9 10 10 10 9 8 8 8 8 8 8 8 7 8 7 6 5 4 1 1 2 2 3 2 2 2 2 2
10 10 10 11 11 11 12 11 11 10 9 9 9 9 9 9 9 9 9 8 7 5 4 1 1 2 3 4 3 3 3 3
10 10 11 12 12 12 13 12 12 11 10 11 10 10 10 9 9 9 9 9 8 7 6 5 2 2 8 9 6 4 3 3
11 12 12 12 13 13 13 13 13 12 12 12 12 11 11 11 10 9 8 9 9 9 8 6 2 2 9 10 10 4 4 4
12 12 12 13 13 14 13 13 13 14 14 14 13 13 12 11 11 10 9 9 9 9 9 6 4 4 10 10 10 6 7 9